Regional Weather Roundup
Issued by NWS

Home | Current Version | Previous Version | Graphics & Text | Print | Product List | Glossary On
Versions: 1 2 3 4 5 6 7 8 9 10 11 12 13 14 15 16 17 18 19 20 21 22 23 24 25 26 27 28 29 30 31 32 33 34 35 36 37 38 39 40 41 42 43 44 45 46 47 48 49 50
000
ASUS43 KMKX 241611
RWRWI

WISCONSIN REGIONAL WEATHER ROUNDUP
NATIONAL WEATHER SERVICE MILWAUKEE/SULLIVAN WI
1100 AM CDT MON APR 24 2017

NOTE: "FAIR" INDICATES FEW OR NO CLOUDS BELOW 12,000 FEET WITH NO
SIGNIFICANT WEATHER AND/OR OBSTRUCTIONS TO VISIBILITY.

WIZ001-002-006>008-014>016-023>028-241700-
NORTHWEST WISCONSIN

CITY           SKY/WX    TMP DP  RH WIND       PRES   REMARKS
SUPERIOR ARPT  MOSUNNY   40  31  70 E17G24    29.87F WCI  31
ASHLAND        CLOUDY    41  28  60 NE12      29.91F
HAYWARD        MOSUNNY   54  34  46 SE9       29.83F
SIREN          MOSUNNY   56  36  48 S12       29.79F
CUMBERLAND     SUNNY     54  36  50 SE14      29.82F
RICE LAKE      SUNNY     54  36  50 SE10G18   29.85F
CHETEK         SUNNY     55  37  52 S9G16     29.84F
LADYSMITH      CLOUDY    54  35  49 S13       29.89F
EAU CLAIRE     MOSUNNY   59  37  44 SE12      29.84F
MENOMONIE      PTSUNNY   61  38  43 SE10      29.83F
NEW RICHMOND   CLOUDY    61  37  40 SE16G22   29.79F
OSCEOLA        CLOUDY    61  40  45 SE13      29.80F
$$

WIZ003>005-009-010-017-018-241700-
NORTH CENTRAL WISCONSIN

CITY           SKY/WX    TMP DP  RH WIND       PRES   REMARKS
MANITOWISH WTR CLOUDY    46  31  56 SE9       29.91S
ARBOR VITAE    CLOUDY    47  32  55 SE12      29.91F
WOODRUFF       CLOUDY    47  32  55 SE12      29.91F
RHINELANDER    CLOUDY    52  33  48 SE10      29.94F
EAGLE RIVER    CLOUDY    47  29  50 S9        29.94F
LAND O LAKES   CLOUDY    45  30  54 S7        29.95F
PHILLIPS       CLOUDY    50  33  51 SE13      29.89F
TOMAHAWK       CLOUDY    49  33  52 SE6       29.94F
MEDFORD        MOSUNNY   50  36  58 SE9       29.91F
MERRILL        CLOUDY    49  34  54 SE8       29.95F
$$

WIZ029-030-035-036-043>047-241700-
CENTRAL WISCONSIN

CITY           SKY/WX    TMP DP  RH WIND       PRES   REMARKS
WAUSAU         MOSUNNY   52  34  50 SE9       29.94F
MOSINEE        PTSUNNY   52  34  50 SE10      29.96F
MARSHFIELD     PTSUNNY   54  35  48 S10       29.91F
STEVENS POINT  MOSUNNY   51  33  49 SE9       29.96F
WAUPACA        CLOUDY    55  38  53 SE3       29.98F
WAUTOMA        MOSUNNY   54  37  54 SE6       29.98
WISC RAPIDS    CLOUDY    58  35  42 S8        29.95F
CAMP DOUGLAS   CLOUDY    61  36  39 SE10      29.91F
$$

WIZ011>013-019>022-031-037>040-048>050-241700-
NORTHEAST WISCONSIN

CITY           SKY/WX    TMP DP  RH WIND       PRES   REMARKS
ANTIGO         MOSUNNY   50  35  56 S9        29.97F
SHAWANO        MOSUNNY   53  38  58 SE3       30.00F
OCONTO         MOSUNNY   51  39  63 S3        30.01F
STURGEON BAY   CLOUDY    51  40  65 SE9       30.02F
GREEN BAY      CLOUDY    55  43  63 VRB5      30.00F
MANITOWOC      CLOUDY    51  40  65 S16       30.02F
APPLETON       PTSUNNY   54  34  47 SE8       29.98F
CLINTONVILLE   CLOUDY    52  36  54 S8        29.99F
OSHKOSH        MOSUNNY   56  42  59 E8        29.98F
$$

WIZ032>034-041-042-053>061-241700-
SOUTHWEST WISCONSIN

CITY           SKY/WX    TMP DP  RH WIND       PRES   REMARKS
LA CROSSE      PTSUNNY   63  39  41 S10       29.87F
SPARTA         CLOUDY    61  36  38 S9G18     29.90F
VIROQUA        PTSUNNY   61  35  37 S9        29.90F
BOSCOBEL       CLOUDY    66  32  28 S10       29.92F
PRAIRIE DU CHI CLOUDY    65  27  23 SE12G24   29.89F
PLATTEVILLE    CLOUDY    65  33  30 S17       29.94F
$$

WIZ056-057-062-063-064-067-068-241700-
SOUTH CENTRAL WISCONSIN

CITY           SKY/WX    TMP DP  RH WIND       PRES   REMARKS
REEDSBURG      PTSUNNY   59  34  39 S10       29.94F
BARABOO/DELLS  PTSUNNY   60  34  37 S12G17    29.94F
LONE ROCK      CLOUDY    64  33  31 S9        29.93F
MINERAL POINT  PTSUNNY   63  30  29 S13       29.93F
MADISON        PTSUNNY   61  38  42 S13       29.96F
MIDDLETON      SUNNY     65  36  34 S13G20    29.96F
WATERTOWN      SUNNY     64  36  36 S12       29.98F
MONROE         SUNNY     63  32  31 S16G23    29.95F
JANESVILLE     PTSUNNY   66  34  30 S12G17    29.97F
$$

WIZ051-052-058>065-066-070>072-241700-
SOUTHEAST WISCONSIN

CITY           SKY/WX    TMP DP  RH WIND       PRES   REMARKS
MILWAUKEE      MOSUNNY   55  44  66 E8        30.01F
WAUKESHA       SUNNY     61  36  39 SE5       30.00F
MILWAUKEE/TIMM SUNNY     57  36  44 E5        30.01F
RACINE         SUNNY     53  38  56 SE12      30.03F
KENOSHA        SUNNY     61  43  51 E10       30.00F
FOND DU LAC    MOSUNNY   63  37  38 S14       29.98F
SHEBOYGAN      MOSUNNY   54  43  66 S9        30.01F
WEST BEND      SUNNY     61  36  39 S9        29.99F
JUNEAU         MOSUNNY   62  38  41 S10       29.99F
$$

LSZ147-162-241700-
LAKE SUPERIOR

STATION/POSITION TIME  TEMP    WIND        PRES    WAVE
                       AIR SEA DIR/SP/G            HT/PER
                 (UTC) (F)     (DEG/KT/KT) (MB)    (FT/S)
DEVILS ISLAND    1600   35      70/ 23/ 25 1014.2F
PORT WING        1600   38      30/ 18/ 25 1012.2
SAXON HARBOR     1540   38      40/ 12/ 14 1012.9S
$$

LMZ867-665-643>646-241700-
LAKE MICHIGAN

STATION/POSITION TIME  TEMP    WIND        PRES    WAVE
                       AIR SEA DIR/SP/G            HT/PER
                 (UTC) (F)     (DEG/KT/KT) (MB)    (FT/S)
CHAMBERS ISLAND  1540   41      10/  9/ 11 1016.9S
N MID LAKE BUOY  1550   38 37   90/ 10/ 12 1019.2F   2/ 4
NORTHPORT PIER   1540   39      90/ 10/ 13 1017.6S
SISTER BAY       1506   51     140/  7/ 10   N/A
KEWAUNEE LAKESHO 1548   44     150/  5/  9 1016.4F
SHEBOYGAN LAKESH 1600   44     180/ 13/ 14 1016.6F
PORT WASHINGTON  1530   49     180/  3/  6 1017.6F
MILWAUKEE LAKESH 1550   45      80/  4/  5   N/A
S MID LAKE BUOY  1450   42 41   90/  6/  8 1017.7F   2/ 6
KENOSHA   LAKESH 1600   47     140/  4/  6 1016.6
$$

TC  - TEMPERATURE IN CELSIUS
VSB - VISIBILITY IN STATUTE MILES
WCI - WIND CHILL INDEX
HX  - HEAT INDEX





USA.gov is the U.S. government's official web portal to all federal, state and local government web resources and services.